Location: Cartignies
(50.0929°N, 3.8447°E)
Time: 17:15:23
(UTC+00:00)

Cosmos 304 Rocket - Visible Passes

Search period start: 11 April 2026 00:00
Search period end: 21 April 2026 00:00
Orbit: 669 x 675 km, 74.0° (Epoch: 11 April)

Date Brightness Start Highest point End Pass type
(mag) Time Alt. Az. Time Alt. Az. Time Alt. Az.
11 Apr 5.2 22:43:51 10° N 22:47:28 30° NE 22:47:28 30° NE visible
12 Apr 5.6 00:23:45 10° NW 00:25:43 23° NW 00:25:43 23° NW visible
12 Apr 6.0 21:39:09 10° N 21:41:41 14° NE 21:42:52 13° ENE visible
12 Apr 4.8 23:17:51 10° NNW 23:21:06 43° N 23:21:06 43° N visible
13 Apr 6.3 00:59:02 10° WNW 00:59:21 11° WNW 00:59:21 11° WNW visible
13 Apr 5.2 22:12:30 10° N 22:16:31 27° NE 22:16:31 27° NE visible
13 Apr 5.3 23:52:14 10° NNW 23:54:46 29° NW 23:54:46 29° NW visible
14 Apr 6.1 21:08:01 10° NNE 21:10:06 13° NE 21:11:56 11° ENE visible
14 Apr 4.5 22:46:26 10° NNW 22:50:11 49° NNE 22:50:11 49° NNE visible
15 Apr 6.1 00:27:18 10° NW 00:28:26 14° WNW 00:28:26 14° WNW visible
15 Apr 5.3 21:41:10 10° N 21:45:03 24° NE 21:45:38 24° ENE visible
15 Apr 4.9 23:20:44 10° NNW 23:23:52 38° NW 23:23:52 38° NW visible
16 Apr 6.1 20:37:03 10° NNE 20:38:30 11° NE 20:39:57 10° ENE visible
16 Apr 4.3 22:15:01 10° NNW 22:19:20 50° NE 22:19:20 50° NE visible
16 Apr 5.8 23:55:37 10° NW 23:57:35 19° WNW 23:57:35 19° WNW visible
17 Apr 5.4 21:09:51 10° N 21:13:31 21° NE 21:14:48 19° ENE visible
17 Apr 4.3 22:49:15 10° NNW 22:53:03 53° NW 22:53:03 53° NW visible
18 Apr 4.3 21:43:37 10° NNW 21:48:11 44° ENE 21:48:32 43° ENE visible
18 Apr 5.5 23:24:00 10° NW 23:26:47 24° WNW 23:26:47 24° WNW visible
19 Apr 5.6 20:38:33 10° N 20:41:57 19° NE 20:44:03 15° E visible
19 Apr 3.8 22:17:47 10° NNW 22:22:18 75° WNW 22:22:18 75° WNW visible
20 Apr 6.3 00:00:29 10° WNW 00:00:33 10° WNW 00:00:33 10° WNW visible
20 Apr 4.5 21:12:13 10° NNW 21:16:42 38° ENE 21:17:49 33° E visible
20 Apr 5.0 22:52:24 10° NW 22:56:04 31° W 22:56:04 31° W visible
